Weather in Las Lenas

Argentina     35°08′38″S   70°04′46″W
temp.,
°C
wind,
m/s
gust,
m/s
humid.,
%
clouds,
%
prec.,
mm/h
press.,
hPa
HPBL,
m
13 june, sun
sun1300:00+1wnw55460 0.0 101848
03:000w55440 0.0 101845
06:00−1w55460 0.0 101848
09:00−1wnw55500 0.0 101950
12:00+4wnw59350 0.0 1017493
15:00+5wnw510390 0.0 1015752
18:00+1w465632 0.0 1018182
21:000wnw3450100 0.0 102149
14 june, mon
mon1400:000w3339100 0.0 102124
03:00−1wnw223667 0.0 102012
06:00−1wnw2236100 0.0 102014
09:00−1wnw223714 0.0 102113
12:00+3nw133458 0.0 1020307
15:00+2ne225693 0.0 1020242
18:00−2ne228092 0.0 1022168
21:00−4ne228427 0.0 102575
15 june, tue
tue1500:00−5ene228130 0.0 102680
03:00−5ne227632 0.0 102572
06:00−4ene226899 0.0 102349
09:00−4ene2271100 0.0 102460
12:00−3ene3367100 0.0 1024173
15:00−2ne3263100 0.0 1021222
18:00−4ene2180100 0.0 1024128
21:00−5e2286100 0.1 102379
16 june, wed
wed1600:00−6ene2290100 0.3 1024111
03:00−5nnw2285100 0.4 1024131
06:00−5sw0191100 1.0 102089
09:00−4nnw0193100 1.1 102191
12:00−3nw1190100 0.8 1020279
15:00−2w2382100 1.7 1017493
18:00−3w1288100 0.5 1018163
21:00−5w229585 0.7 102128
17 june, thu
thu1700:00−6w339569 0.0 102388
03:00−6w339464 0.0 102292
06:00−6w238722 0.0 102135
09:00−6wnw22795 0.0 102126
12:00−2wnw225813 0.0 1017385
15:00−1wnw355533 0.0 10151025
18:00−4wnw127713 0.0 101777
21:00−6wnw228659 0.0 102023